Volver al catálogo

CZ-6A DEB

ActivoPO
NORAD 61167·DEBRIS·🇨🇳 China

Lanzado Aug 6, 2024 desde Taiyuan Satellite Launch Center

Loading…

Próximos Pases (próximas 24 horas)

TLE

ActualizadoSource: Space-Track

Época: Sep 13, 2026, 23:13 UTC

1 61167U 24140RM  26256.96768788  .00002848  00000-0  86340-3 0  9998
2 61167  88.9595 258.6513 0038552  68.7578 291.7735 14.41612910108261

Sigue CZ-6A DEB en tiempo real con AllMySat

Download on the App Store